• în România
  • Lista ţărilor
  • Pe 7 zile
  • Temperatura apei
  • Hartă satelitară
  • Meteo pe hartă
  • Widget-uri
  • user-avatar
    Intrare

    Meteo pe oră la Eger

    Astăzi, 17 August, Vineri

    Timp Temperatura Precipitaţii Vânt Presiune Umiditate
    00:00 +20°C° 0 mm 2 m/s 745 mmHg 79%
    01:00 +19°C° 0 mm 2 m/s 745 mmHg 81%
    02:00 +19°C° 0 mm 2 m/s 745 mmHg 82%
    03:00 +18°C° 0 mm 2 m/s 745 mmHg 83%
    04:00 +18°C° 0 mm 2 m/s 745 mmHg 84%
    05:00 +19°C° 0 mm 2 m/s 745 mmHg 80%
    06:00 +20°C° 0 mm 2 m/s 745 mmHg 75%
    07:00 +23°C° 0 mm 2 m/s 745 mmHg 71%
    08:00 +25°C° 0 mm 1 m/s 745 mmHg 64%
    09:00 +27°C° 0 mm 1 m/s 745 mmHg 57%
    10:00 +29°C° 0 mm 1 m/s 745 mmHg 50%
    11:00 +30°C° 0 mm 1 m/s 745 mmHg 46%
    12:00 +29°C° 0 mm 0 m/s 745 mmHg 43%
    13:00 +30°C° 0 mm 0 m/s 745 mmHg 39%
    14:00 +30°C° 0 mm 0 m/s 744 mmHg 38%
    15:00 +31°C° 0 mm 1 m/s 744 mmHg 38%
    16:00 +31°C° 0 mm 1 m/s 744 mmHg 37%
    17:00 +29°C° 0 mm 1 m/s 744 mmHg 42%
    18:00 +26°C° 0 mm 0 m/s 744 mmHg 46%
    19:00 +24°C° 0 mm 0 m/s 744 mmHg 51%
    20:00 +25°C° 0 mm 1 m/s 744 mmHg 54%
    21:00 +24°C° 0 mm 1 m/s 745 mmHg 57%
    22:00 +24°C° 0 mm 1 m/s 745 mmHg 59%
    23:00 +23°C° 0 mm 1 m/s 745 mmHg 62%

    Mâine, 18 August, Sâmbătă

    Timp Temperatura Precipitaţii Vânt Presiune Umiditate
    00:00 +23°C° 0 mm 1 m/s 745 mmHg 64%
    01:00 +22°C° 0 mm 1 m/s 745 mmHg 67%
    02:00 +22°C° 0 mm 1 m/s 745 mmHg 69%
    03:00 +21°C° 0 mm 1 m/s 746 mmHg 70%
    04:00 +21°C° 0 mm 1 m/s 746 mmHg 72%
    05:00 +22°C° 0 mm 1 m/s 746 mmHg 69%
    06:00 +23°C° 0 mm 1 m/s 746 mmHg 66%
    07:00 +24°C° 0 mm 1 m/s 746 mmHg 63%
    08:00 +26°C° 0 mm 1 m/s 746 mmHg 57%
    09:00 +28°C° 0 mm 1 m/s 747 mmHg 51%
    10:00 +30°C° 0 mm 1 m/s 747 mmHg 45%
    11:00 +31°C° 0 mm 1 m/s 747 mmHg 41%
    12:00 +32°C° 0 mm 1 m/s 746 mmHg 38%
    13:00 +33°C° 0 mm 1 m/s 746 mmHg 35%
    14:00 +32°C° 0 mm 1 m/s 746 mmHg 35%
    15:00 +32°C° 0 mm 1 m/s 746 mmHg 36%
    16:00 +32°C° 0 mm 2 m/s 746 mmHg 36%
    17:00 +30°C° 0 mm 2 m/s 746 mmHg 41%
    18:00 +28°C° 0 mm 2 m/s 746 mmHg 46%
    19:00 +27°C° 0 mm 2 m/s 746 mmHg 50%
    20:00 +26°C° 0 mm 2 m/s 746 mmHg 53%
    21:00 +25°C° 0 mm 2 m/s 747 mmHg 56%
    22:00 +24°C° 0 mm 2 m/s 747 mmHg 60%
    23:00 +24°C° 0 mm 2 m/s 747 mmHg 62%

    Poimâine, 19 August, Duminică

    Timp Temperatura Precipitaţii Vânt Presiune Umiditate
    00:00 +23°C° 0 mm 2 m/s 747 mmHg 65%
    01:00 +23°C° 0 mm 2 m/s 747 mmHg 67%
    02:00 +21°C° 0 mm 2 m/s 747 mmHg 69%
    03:00 +21°C° 0 mm 2 m/s 747 mmHg 70%
    04:00 +21°C° 0 mm 2 m/s 747 mmHg 71%
    05:00 +23°C° 0 mm 2 m/s 747 mmHg 68%
    06:00 +24°C° 0 mm 2 m/s 747 mmHg 64%
    07:00 +25°C° 0 mm 2 m/s 747 mmHg 60%
    08:00 +27°C° 0 mm 2 m/s 747 mmHg 54%
    09:00 +29°C° 0 mm 3 m/s 747 mmHg 48%
    10:00 +30°C° 0 mm 3 m/s 747 mmHg 42%
    11:00 +31°C° 0 mm 3 m/s 747 mmHg 40%
    12:00 +33°C° 0 mm 3 m/s 747 mmHg 38%
    13:00 +33°C° 0 mm 3 m/s 746 mmHg 35%
    14:00 +33°C° 0 mm 3 m/s 746 mmHg 36%
    15:00 +33°C° 0 mm 3 m/s 746 mmHg 37%
    16:00 +33°C° 0 mm 3 m/s 746 mmHg 39%
    17:00 +30°C° 0 mm 3 m/s 746 mmHg 44%
    18:00 +28°C° 0 mm 3 m/s 746 mmHg 50%
    19:00 +26°C° 0 mm 3 m/s 746 mmHg 55%
    20:00 +25°C° 0 mm 3 m/s 746 mmHg 60%
    21:00 +25°C° 0 mm 3 m/s 746 mmHg 64%
    22:00 +24°C° 0 mm 3 m/s 746 mmHg 68%
    23:00 +22°C° 0 mm 3 m/s 746 mmHg 70%

    20 August, Luni

    Timp Temperatura Precipitaţii Vânt Presiune Umiditate
    00:00 +21°C° 0 mm 3 m/s 746 mmHg 72%
    01:00 +21°C° 0 mm 3 m/s 746 mmHg 75%
    02:00 +21°C° 0 mm 3 m/s 746 mmHg 76%
    03:00 +20°C° 0 mm 2 m/s 746 mmHg 76%
    04:00 +20°C° 0 mm 2 m/s 745 mmHg 77%
    05:00 +21°C° 0 mm 3 m/s 746 mmHg 73%
    06:00 +22°C° 0 mm 3 m/s 746 mmHg 68%
    07:00 +23°C° 0 mm 4 m/s 746 mmHg 64%
    08:00 +26°C° 0 mm 4 m/s 746 mmHg 58%
    09:00 +28°C° 0 mm 4 m/s 746 mmHg 51%
    10:00 +30°C° 0 mm 4 m/s 746 mmHg 45%
    11:00 +31°C° 0 mm 3 m/s 746 mmHg 42%
    12:00 +31°C° 0 mm 3 m/s 745 mmHg 40%
    13:00 +33°C° 0 mm 3 m/s 745 mmHg 37%
    14:00 +33°C° 0 mm 3 m/s 745 mmHg 37%
    15:00 +32°C° 0 mm 2 m/s 745 mmHg 36%
    16:00 +32°C° 0 mm 2 m/s 745 mmHg 36%
    17:00 +31°C° 0 mm 2 m/s 745 mmHg 41%
    18:00 +29°C° 0 mm 2 m/s 745 mmHg 47%
    19:00 +27°C° 0 mm 2 m/s 745 mmHg 52%
    20:00 +26°C° 0 mm 2 m/s 745 mmHg 57%
    21:00 +25°C° 0 mm 2 m/s 745 mmHg 62%
    22:00 +24°C° 0 mm 2 m/s 745 mmHg 67%
    23:00 +24°C° 0 mm 2 m/s 745 mmHg 71%

    21 August, Marţi

    Timp Temperatura Precipitaţii Vânt Presiune Umiditate
    00:00 +23°C° 0 mm 2 m/s 745 mmHg 74%
    01:00 +21°C° 0 mm 2 m/s 745 mmHg 77%
    02:00 +21°C° 0 mm 2 m/s 745 mmHg 79%
    03:00 +21°C° 0 mm 2 m/s 746 mmHg 80%
    04:00 +20°C° 0 mm 2 m/s 746 mmHg 81%
    05:00 +21°C° 0 mm 2 m/s 746 mmHg 77%
    06:00 +24°C° 0 mm 2 m/s 746 mmHg 72%
    07:00 +25°C° 0 mm 2 m/s 746 mmHg 68%
    08:00 +27°C° 0 mm 2 m/s 746 mmHg 60%
    09:00 +29°C° 0 mm 1 m/s 746 mmHg 52%
    10:00 +31°C° 0 mm 1 m/s 746 mmHg 45%
    11:00 +32°C° 0 mm 1 m/s 746 mmHg 41%
    12:00 +33°C° 0 mm 1 m/s 746 mmHg 38%
    13:00 +34°C° 0 mm 1 m/s 746 mmHg 35%
    14:00 +34°C° 0 mm 1 m/s 746 mmHg 35%
    15:00 +33°C° 0 mm 1 m/s 745 mmHg 35%
    16:00 +33°C° 0 mm 1 m/s 745 mmHg 36%
    17:00 +31°C° 0 mm 1 m/s 745 mmHg 39%
    18:00 +30°C° 0 mm 1 m/s 745 mmHg 43%
    19:00 +26°C° 0 mm 0 m/s 745 mmHg 46%
    20:00 +25°C° 0 mm 0 m/s 746 mmHg 49%
    21:00 +27°C° 0 mm 1 m/s 746 mmHg 51%
    22:00 +26°C° 0 mm 1 m/s 746 mmHg 53%
    23:00 +25°C° 0 mm 1 m/s 746 mmHg 56%

    22 August, Miercuri

    Timp Temperatura Precipitaţii Vânt Presiune Umiditate
    00:00 +25°C° 0 mm 1 m/s 746 mmHg 59%
    01:00 +24°C° 0 mm 1 m/s 746 mmHg 61%
    02:00 +24°C° 0 mm 1 m/s 746 mmHg 64%
    03:00 +24°C° 0 mm 1 m/s 746 mmHg 66%
    04:00 +23°C° 0 mm 1 m/s 746 mmHg 69%
    05:00 +24°C° 0 mm 1 m/s 746 mmHg 67%
    06:00 +25°C° 0 mm 1 m/s 746 mmHg 66%
    07:00 +25°C° 0 mm 1 m/s 746 mmHg 65%
    08:00 +27°C° 0 mm 1 m/s 746 mmHg 59%
    09:00 +29°C° 0 mm 1 m/s 746 mmHg 53%
    10:00 +31°C° 0 mm 1 m/s 746 mmHg 47%
    11:00 +32°C° 0 mm 1 m/s 746 mmHg 43%
    12:00 +33°C° 0 mm 1 m/s 746 mmHg 38%
    13:00 +35°C° 0 mm 1 m/s 745 mmHg 33%
    14:00 +34°C° 0 mm 1 m/s 745 mmHg 35%
    15:00 +33°C° 0 mm 1 m/s 745 mmHg 36%
    16:00 +31°C° 0 mm 0 m/s 745 mmHg 37%
    17:00 +29°C° 0 mm 0 m/s 745 mmHg 40%
    18:00 +28°C° 0 mm 0 m/s 745 mmHg 43%
    19:00 +26°C° 0 mm 0 m/s 745 mmHg 46%
    20:00 +25°C° 0,1 mm 0 m/s 745 mmHg 48%
    21:00 +25°C° 0,1 mm 0 m/s 745 mmHg 51%
    22:00 +26°C° 0,1 mm 1 m/s 745 mmHg 54%
    23:00 +25°C° 0,2 mm 1 m/s 745 mmHg 57%
    Arată mai mult